Date,TemperatureHighF,TemperatureAvgF,TemperatureLowF,DewpointHighF,DewpointAvgF,DewpointLowF,HumidityHigh,HumidityAvg,HumidityLow,PressureMaxIn,PressureMinIn,WindSpeedMaxMPH,WindSpeedAvgMPH,GustSpeedMaxMPH,PrecipitationSumIn
2013-2-1,20.2,13.9,6.0,16.8,3.1,-3.3,87,62,50,30.49,30.06,21,3,21,0.02
2013-2-2,34.6,26.0,15.7,30.3,20.9,7.7,94,81,69,30.40,30.05,13,2,13,0.02
2013-2-3,29.0,26.8,18.6,24.2,20.5,13.3,84,77,70,30.18,29.98,15,2,15,0.00
2013-2-4,43.2,29.0,12.6,40.5,23.9,10.5,100,83,50,30.17,29.88,15,1,15,0.49
2013-2-5,49.2,41.5,36.2,40.1,36.5,31.1,100,84,56,30.04,29.88,13,1,13,0.01
2013-2-6,45.2,34.3,24.8,34.0,28.8,24.8,100,82,58,30.27,30.04,7,0,7,0.00
2013-2-7,64.3,47.4,33.5,39.3,33.3,29.4,86,62,34,30.21,29.86,13,1,13,0.00
2013-2-8,49.5,38.8,33.1,47.3,34.0,28.3,100,83,59,30.33,29.82,16,3,16,0.11
2013-2-9,44.5,34.4,24.5,29.1,21.5,18.4,85,61,37,30.44,30.23,11,1,11,0.00
2013-2-10,58.3,44.5,32.4,49.8,31.5,19.4,100,63,30,30.23,29.84,20,2,20,0.00
2013-2-11,54.4,49.0,37.3,53.4,36.9,25.5,100,66,38,30.09,29.84,28,4,28,0.00
2013-2-12,50.4,37.1,25.4,29.5,26.0,22.3,92,67,39,30.17,29.91,10,1,10,0.00
2013-2-13,38.6,34.9,29.7,35.2,30.0,26.6,99,83,64,29.96,29.76,9,1,9,0.01
2013-2-14,55.9,39.7,30.0,40.1,32.9,28.3,99,80,42,30.00,29.89,21,2,22,0.00
2013-2-15,43.1,35.8,24.1,36.0,29.7,20.3,93,79,57,30.18,30.00,18,1,18,0.02
2013-2-16,34.6,25.0,16.9,25.6,15.7,8.4,99,71,39,30.17,30.06,18,2,18,0.00
2013-2-17,35.8,24.7,15.1,14.6,10.8,3.5,86,58,26,30.30,30.15,12,1,12,0.00
2013-2-18,60.9,42.6,22.7,38.1,23.7,10.2,70,49,33,30.25,29.82,24,3,27,0.02
2013-2-19,47.3,36.6,24.8,41.5,27.0,14.7,99,70,44,30.17,29.73,27,6,29,0.15
2013-2-20,34.4,26.3,19.2,16.7,13.0,10.3,69,57,41,30.32,30.17,15,2,15,0.00
2013-2-21,37.2,27.1,16.9,26.9,17.4,10.8,87,68,49,30.37,30.05,20,2,20,0.00
2013-2-22,57.8,42.0,30.3,48.4,38.5,26.9,100,88,62,30.07,29.92,15,2,15,0.29
2013-2-23,47.7,39.0,30.1,39.6,28.9,22.5,96,70,39,30.01,29.91,10,1,10,0.00
2013-2-24,46.7,32.6,21.4,28.9,23.3,19.4,98,71,40,30.15,29.96,9,1,9,0.00
2013-2-25,48.9,36.9,25.6,25.9,22.4,19.6,83,58,36,30.17,29.86,15,3,16,0.00
2013-2-26,54.4,44.8,39.3,51.5,38.9,23.1,98,81,52,29.86,29.37,27,3,27,0.53
2013-2-27,39.8,36.7,32.2,38.3,34.7,30.9,98,93,79,29.79,29.58,23,4,23,0.07
2013-2-28,35.5,33.4,31.9,34.4,31.3,28.5,100,92,86,29.99,29.77,18,3,18,0.07